Driggs, ID

1:38 PM MDT on August 18, 2017 (GMT -0600)
Driggs

Weather History for KDIJ - November, 2012

Change the Weather History Date:

Thursday, November 29, 2012

  Actual Average (KJAC) Record (KJAC)
Temperature  
Mean Temperature 40 °F -  
Max Temperature 45 °F 30 °F 45 °F (1986)
Min Temperature 35 °F 7 °F -13 °F (1981)
Degree Days  
Heating Degree Days 25    
Moisture  
Dew Point 30 °F    
Average Humidity 75    
Maximum Humidity 93    
Minimum Humidity 52    
Precipitation  
Precipitation 0.03 in - - ()
Sea Level Pressure  
Sea Level Pressure 30.00 in    
Wind  
Wind Speed 9 mph (South)    
Max Wind Speed 15 mph    
Max Gust Speed -    
Visibility 10 miles    
Events      
Averages and records for this station are not official NWS values.
T = Trace of Precipitation, MM = Missing Value Source: NWS Daily Summary

Daily Weather History Graph

Daily Weather History Graph

Search for Another Location

Airport or City:

Trip Planner

Search our weather history database for the weather conditions in past years. The results will help you decide how hot, cold, wet, or windy it might be!

Date:

Astronomy

Nov. 29, 2012 Rise Set
Actual Time 7:36 AM MST 4:48 PM MST
Civil Twilight 7:04 AM MST 5:21 PM MST
Nautical Twilight 6:28 AM MST 5:56 PM MST
Astronomical Twilight 5:54 AM MST 6:31 PM MST
Moon 5:54 PM MST (11/29) 8:26 AM MST (11/29)
Length of Visible Light 10h 16m
Length of Day
9h 12m
Full, 99% of the Moon is Illuminated
Nov 29
Full
Dec 6
Last Quarter
Dec 13
New
Dec 19
First Quarter
Dec 28
Full

Hourly Weather History & Observations

Time (MST) Temp. Windchill Dew Point Humidity Pressure Visibility Wind Dir Wind Speed Gust Speed Precip Events Conditions
12:34 AM 35.6 °F 29.9 °F 33.8 °F 93% 30.05 in 10.0 mi ESE 6.9 mph - 0.01 in   Overcast
12:56 AM 36.0 °F 29.0 °F 32.9 °F 89% 29.94 in 10.0 mi SSE 9.2 mph - 0.01 in   Mostly Cloudy
1:06 AM 37.4 °F 29.3 °F 33.8 °F 87% 30.04 in 10.0 mi South 12.7 mph - 0.00 in   Overcast
1:56 AM 36.0 °F 29.6 °F 32.9 °F 89% 29.94 in 10.0 mi South 8.1 mph - 0.02 in   Overcast
2:17 AM 37.4 °F 30.3 °F 33.8 °F 87% 30.03 in 10.0 mi South 10.4 mph - 0.00 in   Overcast
2:56 AM 37.9 °F 30.9 °F 32.9 °F 82% 29.94 in 10.0 mi SSW 10.4 mph - 0.00 in   Mostly Cloudy
3:24 AM 37.4 °F 30.3 °F 33.8 °F 87% 30.04 in 10.0 mi SSW 10.4 mph - 0.00 in   Overcast
3:56 AM 36.9 °F 28.2 °F 32.9 °F 86% 29.96 in 10.0 mi South 13.8 mph - 0.00 in   Overcast
4:19 AM 37.4 °F 29.8 °F 33.8 °F 87% 30.05 in 10.0 mi SSW 11.5 mph - 0.00 in   Overcast
4:31 AM 35.6 °F 28.0 °F 32.0 °F 87% 30.05 in 10.0 mi SSW 10.4 mph - 0.00 in   Overcast
4:45 AM 35.6 °F 28.0 °F 32.0 °F 87% 30.04 in 10.0 mi SSW 10.4 mph - 0.00 in   Overcast
4:56 AM 36.0 °F 28.0 °F 32.0 °F 86% 30.00 in 10.0 mi SSW 11.5 mph - 0.00 in   Overcast
5:56 AM 36.9 °F 27.8 °F 31.1 °F 80% 30.02 in 10.0 mi SSW 15.0 mph - 0.00 in   Mostly Cloudy
6:56 AM 36.9 °F 29.1 °F 30.0 °F 76% 30.03 in 10.0 mi SSW 11.5 mph - N/A   Overcast
7:56 AM 36.0 °F 29.0 °F 29.1 °F 76% 30.03 in 10.0 mi South 9.2 mph - N/A   Mostly Cloudy
8:56 AM 38.8 °F 33.2 °F 30.0 °F 71% 30.05 in 10.0 mi South 8.1 mph - N/A   Overcast
9:56 AM 39.9 °F 32.5 °F 29.1 °F 65% 30.05 in 10.0 mi South 12.7 mph - N/A   Partly Cloudy
10:56 AM 41.0 °F 33.9 °F 28.0 °F 60% 30.04 in 10.0 mi South 12.7 mph - N/A   Clear
11:56 AM 41.9 °F 35.0 °F 28.0 °F 58% 30.03 in 10.0 mi SSW 12.7 mph - N/A   Clear
12:56 PM 43.9 °F 39.3 °F 27.1 °F 52% 30.03 in 10.0 mi South 8.1 mph - N/A   Partly Cloudy
1:56 PM 45.0 °F 40.1 °F 29.1 °F 54% 29.99 in 10.0 mi SSE 9.2 mph - N/A   Clear
2:56 PM 45.0 °F 42.6 °F 29.1 °F 54% 29.97 in 10.0 mi South 4.6 mph - N/A   Clear
3:56 PM 41.9 °F 39.0 °F 30.0 °F 63% 29.97 in 10.0 mi South 4.6 mph - N/A   Mostly Cloudy
4:56 PM 37.9 °F 32.7 °F 29.1 °F 71% 30.00 in 10.0 mi South 6.9 mph - N/A   Clear
5:56 PM 36.9 °F 32.2 °F 27.1 °F 68% 30.00 in 10.0 mi South 5.8 mph - N/A   Clear
6:56 PM 36.0 °F 28.5 °F 28.0 °F 73% 30.00 in 10.0 mi South 10.4 mph - N/A   Partly Cloudy
7:56 PM 36.9 °F 31.4 °F 29.1 °F 74% 30.00 in 10.0 mi SSW 6.9 mph - N/A   Overcast
8:56 PM 37.9 °F 32.1 °F 28.0 °F 68% 29.98 in 10.0 mi South 8.1 mph - N/A   Overcast
9:56 PM 37.9 °F 31.5 °F 28.0 °F 68% 29.96 in 10.0 mi South 9.2 mph - N/A   Partly Cloudy
10:56 PM 38.8 °F 33.2 °F 28.0 °F 65% 29.95 in 10.0 mi South 8.1 mph - N/A   Overcast
11:56 PM 38.8 °F 34.6 °F 29.1 °F 68% 29.94 in 10.0 mi SSE 5.8 mph - N/A   Overcast